Home > Weather > Wismar > Past weeks

Flag for Germany Weather for the Past 2 Weeks in Wismar, Mecklenburg-Western Pomerania, Germany

Now
48 °F

Cool.


Feels Like: 45 °F
Forecast: 46 / 67 °F
Wind: 8 mph from East

Location: Laage

Current Time: May 6, 2016 at 12:19:39 AM

Latest Report: May 5, 2016 at 11:20 PM


Visibility: N/A

Pressure: 30.27 "Hg

Humidity: 66%

Dew Point: 37 °F

Location of WismarLocation

Historic Weather in Wismar — Graph

°F

Wismar Temperature Yesterday

Maximum temperature yesterday: 63 °F (at 2:20 PM)
Minimum temperature yesterday: 36 °F (at 4:20 AM)
Average temperature yesterday: 51 °F

High & Low Weather Summary for the Past Weeks

 TemperatureHumidityPressure
High66 °F (May 2, 4:20 PM)100% (Apr 21, 5:20 AM)30.42 "Hg (Apr 21, 5:20 AM)
Low32 °F (Apr 25, 1:20 AM)27% (Apr 23, 6:20 PM)29.42 "Hg (Apr 26, 3:20 AM)
Average45 °F73%29.96 "Hg
* Reported Apr 20 10:20 PM — May 5 10:20 PM, Wismar, Weather by CustomWeather, © 2016

Note: Actual official high and low records may vary slightly from our data, if they occured in-between our weather recording intervals... More about our weather records

Advertising

Wismar Weather History for the Previous 24 Hours

Scroll right to see more
 ConditionsComfort  
Time TempWeatherWind HumidityBarometerVisibility
10:20 PM
Thu, May 5
50 °FPassing clouds.8 mph62%30.27 "HgN/A
9:20 PM52 °FPassing clouds.8 mph50%30.27 "HgN/A
8:20 PM55 °FPassing clouds.9 mph44%30.27 "HgN/A
7:20 PM61 °FPassing clouds.9 mph36%30.27 "HgN/A
6:20 PM63 °FPassing clouds.9 mph34%30.30 "HgN/A
5:20 PM63 °FPassing clouds.7 mph32%30.30 "HgN/A
4:20 PM63 °FPassing clouds.8 mph32%30.33 "HgN/A
3:20 PM63 °FPassing clouds.8 mph32%30.33 "HgN/A
2:20 PM63 °FPassing clouds.5 mph32%30.36 "HgN/A
1:20 PM61 °FPassing clouds.5 mph39%30.36 "HgN/A
12:20 PM59 °FPassing clouds.3 mph39%30.39 "HgN/A
11:20 AM57 °FPassing clouds.7 mph44%30.39 "HgN/A
10:20 AM55 °FPassing clouds.7 mph55%30.39 "HgN/A
9:20 AM54 °FPassing clouds.8 mph63%30.39 "HgN/A
8:20 AM50 °FPassing clouds.3 mph71%30.39 "HgN/A
7:20 AM45 °FPassing clouds.No wind81%30.39 "HgN/A
6:20 AM37 °FFog.No wind93%30.42 "HgN/A
5:20 AM36 °FFog.No wind93%30.39 "HgN/A
4:20 AM36 °FFog.No wind93%30.39 "HgN/A
3:20 AM39 °FChilly.5 mph87%30.39 "HgN/A
2:20 AM39 °FChilly.3 mph87%30.39 "HgN/A
1:20 AM37 °FChilly.2 mph93%30.39 "HgN/A
12:20 AM41 °FQuite cool.3 mph87%30.39 "HgN/A
Weather by CustomWeather, © 2016

See weather overviewHow to use our weather pages